Regional Weather Roundup
Issued by NWS

Home | Current Version | Previous Version | Graphics & Text | Print | Product List | Glossary On
Versions: 1 2 3 4 5 6 7 8 9 10 11 12 13 14 15 16 17 18 19 20 21 22 23 24 25 26 27 28 29 30 31 32 33 34 35 36 37 38 39 40 41 42 43 44 45 46 47 48 49 50
000
ASUS45 KCYS 241410
RWRWY

WYOMING REGIONAL WEATHER ROUNDUP
NATIONAL WEATHER SERVICE CHEYENNE WY
800 AM MDT WED MAY 24 2017

NOTE:  "FAIR" INDICATES FEW OR NO CLOUDS BELOW 12,000 FEET
WITH NO SIGNIFICANT WEATHER AND/OR OBSTRUCTIONS TO VISIBILITY.

WYZ001-241500-
YELLOWSTONE NATIONAL PARK

CITY           SKY/WX    TMP DP  RH WIND       PRES   REMARKS
LK YELLOWSTONE   N/A     44  36  73 CALM      29.88F
W YELLOWSTONE  NOT AVBL

$$
WYZ002>013-054>058-071-098>099-241500-
NORTHERN WYOMING

CITY           SKY/WX    TMP DP  RH WIND       PRES   REMARKS
JACKSON        MOSUNNY   46  37  71 S5        29.88F
CODY           FAIR      67  37  33 SW10G22   29.66F
GREYBULL       FAIR      54  34  46 CALM      29.65F
WORLAND        FAIR      52  41  66 CALM      29.66F
SHERIDAN       FAIR      53  44  71 N5        29.58F
BUFFALO        FAIR      65  39  38 S5        29.64F
GILLETTE       FAIR      52  40  63 S18G25    29.64F
HULETT         FAIR      59  34  38 SW8       29.66F
NEWCASTLE      FAIR      54  32  43 SE17G23   29.73F

$$
WYZ014>020-022>026-101>103-241500-
CENTRAL WYOMING

CITY           SKY/WX    TMP DP  RH WIND       PRES   REMARKS
BIG PINEY      FAIR      43  35  73 CALM      29.94F
PINEDALE       FAIR      43  34  70 NW9G16    29.95F
DUBOIS         FAIR      52  32  46 NW14      29.85F
LANDER         FAIR      52  38  58 CALM      29.75F
RIVERTON       FAIR      53  40  61 SW8       29.76F
CASPER         FAIR      57  40  52 SW21G26   29.76F
DOUGLAS        FAIR      48  39  71 S3        29.74F

$$
WYZ021-027>030-104>119-241500-
SOUTHERN WYOMING

CITY           SKY/WX    TMP DP  RH WIND       PRES   REMARKS
EVANSTON       FAIR      52  34  50 SW13      29.99F
KEMMERER         N/A     54  32  43 W10       29.97F
FORT BRIDGER   FAIR      60  32  34 SW18G26   29.98F
ROCK SPRINGS   FAIR      57  31  37 W22       29.93F
DIXON            N/A     46  34  63 CALM      30.00F
RAWLINS        FAIR      58  33  39 W23G31    29.89F
SARATOGA       FAIR      54  36  50 SE13      29.95F
LARAMIE        FAIR      55  36  48 W22G30    29.90F
CHEYENNE       FAIR      58  38  47 SW10      29.82F
TORRINGTON     FAIR      47  38  71 SE10      29.74F
PINE BLUFFS    FAIR      48  37  66 SW12      29.81F

$$



USA.gov is the U.S. government's official web portal to all federal, state and local government web resources and services.